Simultaneous Nadir Overpasses (SNOs) Predictions

Prediction of SNOs between NOAA-19 and METOP-C Satellite Orbit:

Table of predicted SNOs for the next 14.0 days since TLE Epoch: 5/21/2022
Index Date (NOAA-19) Time (NOAA-19) Lat,Lon (NOAA-19) SZA (NOAA-19 ) Date (METOP-C) Time (METOP-C) Lat,Lon (METOP-C) SZA (METOP-C ) Distance(km) Time Diff (sec)
1 05/29/2022 04:57:25 -80.83, -41.35 119.18 05/29/2022 04:58:38 -80.84, -41.51 119.17 2.84 73
2 05/29/2022 05:48:27 80.83, 126.03 60.83 05/29/2022 05:49:18 80.84, 125.98 60.85 1.57 51
3 05/29/2022 06:39:25 -80.83, -66.87 119.20 05/29/2022 06:40:00 -80.83, -67.02 119.20 2.75 35
4 05/29/2022 07:30:27 80.83, 100.50 60.81 05/29/2022 07:30:40 80.83, 100.47 60.82 0.66 13
5 05/29/2022 08:21:24 -80.83, -92.04 119.18 05/29/2022 08:21:21 -80.84, -92.18 119.19 2.69 3
6 05/29/2022 09:12:27 80.83, 74.98 60.80 05/29/2022 09:12:02 80.82, 74.95 60.78 1.03 25
7 05/29/2022 10:03:24 -80.83,-117.56 119.20 05/29/2022 10:02:43 -80.83,-117.69 119.23 2.31 41



Historial Predications of SNOs between NOAA-19 and METOP-C
